When you browse on this site, cookies collect data to enhance your experience and personalize the content and advertising you see.
Visit our Privacy Policy to learn more. By continuing to use the site, you agree to this use of cookies and data.
  • In Hungary
  • List of Countries
  • For 7 days
  • Water Temperature
  • Satellite Maps
  • Weather Map
  • News
  • Weather Widgets
  • user-avatar
    Login

    Hourly Weather Acerra

    Today, 11 December, Tuesday

    Time Temperature Precipitation Wind Pressure Humidity
    00:00 +9°C° 0 mm 3 mps 758 mmHg 75%
    01:00 +8°C° 0 mm 3 mps 759 mmHg 76%
    02:00 +8°C° 0.1 mm 3 mps 759 mmHg 77%
    03:00 +8°C° 0.1 mm 3 mps 759 mmHg 77%
    04:00 +8°C° 0.1 mm 3 mps 759 mmHg 77%
    05:00 +8°C° 0.1 mm 2 mps 759 mmHg 77%
    06:00 +7°C° 0.1 mm 2 mps 759 mmHg 76%
    07:00 +7°C° 0 mm 2 mps 759 mmHg 77%
    08:00 +8°C° 0 mm 2 mps 759 mmHg 71%
    09:00 +9°C° 0 mm 2 mps 760 mmHg 65%
    10:00 +10°C° 0 mm 2 mps 760 mmHg 58%
    11:00 +12°C° 0.1 mm 2 mps 760 mmHg 54%
    12:00 +12°C° 0.1 mm 1 mps 760 mmHg 49%
    13:00 +13°C° 0.1 mm 1 mps 760 mmHg 44%
    14:00 +13°C° 0.1 mm 1 mps 760 mmHg 47%
    15:00 +12°C° 0.1 mm 1 mps 760 mmHg 49%
    16:00 +12°C° 0.1 mm 1 mps 760 mmHg 51%
    17:00 +11°C° 0.1 mm 1 mps 760 mmHg 54%
    18:00 +10°C° 0.1 mm 1 mps 761 mmHg 57%
    19:00 +9°C° 0.1 mm 2 mps 761 mmHg 60%
    20:00 +8°C° 0 mm 2 mps 761 mmHg 62%
    21:00 +8°C° 0 mm 2 mps 761 mmHg 64%
    22:00 +8°C° 0 mm 2 mps 762 mmHg 66%
    23:00 +7°C° 0 mm 2 mps 762 mmHg 67%

    Tomorrow, 12 December, Wednesday

    Time Temperature Precipitation Wind Pressure Humidity
    00:00 +7°C° 0 mm 2 mps 762 mmHg 67%
    01:00 +6°C° 0 mm 2 mps 762 mmHg 68%
    02:00 +6°C° 0 mm 2 mps 762 mmHg 67%
    03:00 +6°C° 0 mm 2 mps 762 mmHg 67%
    04:00 +6°C° 0 mm 2 mps 762 mmHg 66%
    05:00 +6°C° 0 mm 2 mps 762 mmHg 65%
    06:00 +4°C° 0 mm 3 mps 762 mmHg 64%
    07:00 +4°C° 0 mm 3 mps 762 mmHg 63%
    08:00 +7°C° 0 mm 3 mps 762 mmHg 59%
    09:00 +8°C° 0 mm 3 mps 762 mmHg 55%
    10:00 +9°C° 0 mm 3 mps 762 mmHg 50%
    11:00 +10°C° 0 mm 2 mps 762 mmHg 48%
    12:00 +12°C° 0 mm 2 mps 762 mmHg 45%
    13:00 +13°C° 0 mm 2 mps 761 mmHg 43%
    14:00 +12°C° 0 mm 2 mps 761 mmHg 45%
    15:00 +12°C° 0 mm 2 mps 761 mmHg 47%
    16:00 +10°C° 0 mm 2 mps 760 mmHg 50%
    17:00 +10°C° 0 mm 2 mps 760 mmHg 50%
    18:00 +9°C° 0 mm 3 mps 760 mmHg 51%
    19:00 +8°C° 0 mm 3 mps 760 mmHg 52%
    20:00 +8°C° 0 mm 3 mps 760 mmHg 53%
    21:00 +8°C° 0 mm 3 mps 760 mmHg 54%
    22:00 +8°C° 0 mm 3 mps 760 mmHg 56%
    23:00 +8°C° 0.1 mm 3 mps 760 mmHg 57%

    Day after tomorrow, 13 December, Thursday

    Time Temperature Precipitation Wind Pressure Humidity
    00:00 +7°C° 0.1 mm 3 mps 759 mmHg 59%
    01:00 +7°C° 0.1 mm 3 mps 759 mmHg 61%
    02:00 +7°C° 0 mm 3 mps 759 mmHg 62%
    03:00 +7°C° 0 mm 2 mps 758 mmHg 63%
    04:00 +7°C° 0 mm 2 mps 758 mmHg 64%
    05:00 +7°C° 0 mm 2 mps 758 mmHg 65%
    06:00 +7°C° 0 mm 2 mps 758 mmHg 66%
    07:00 +7°C° 0 mm 2 mps 757 mmHg 67%
    08:00 +8°C° 0 mm 2 mps 757 mmHg 66%
    09:00 +9°C° 0 mm 2 mps 757 mmHg 65%
    10:00 +9°C° 0 mm 2 mps 757 mmHg 64%
    11:00 +10°C° 0.1 mm 2 mps 757 mmHg 65%
    12:00 +12°C° 0.1 mm 2 mps 756 mmHg 66%
    13:00 +12°C° 0.1 mm 2 mps 756 mmHg 67%
    14:00 +12°C° 0.1 mm 2 mps 756 mmHg 71%
    15:00 +12°C° 0.1 mm 2 mps 755 mmHg 74%
    16:00 +12°C° 0.1 mm 2 mps 755 mmHg 77%
    17:00 +10°C° 0.1 mm 2 mps 755 mmHg 80%
    18:00 +10°C° 0.1 mm 2 mps 755 mmHg 82%
    19:00 +10°C° 0.1 mm 2 mps 756 mmHg 85%
    20:00 +10°C° 0.1 mm 2 mps 756 mmHg 85%
    21:00 +10°C° 0.1 mm 2 mps 756 mmHg 86%
    22:00 +10°C° 0.1 mm 2 mps 756 mmHg 87%
    23:00 +10°C° 0.1 mm 2 mps 756 mmHg 88%

    14 December, Friday

    Time Temperature Precipitation Wind Pressure Humidity
    00:00 +10°C° 0.1 mm 2 mps 755 mmHg 88%
    01:00 +10°C° 0.1 mm 2 mps 755 mmHg 89%
    02:00 +10°C° 0 mm 2 mps 755 mmHg 89%
    03:00 +9°C° 0 mm 2 mps 755 mmHg 89%
    04:00 +9°C° 0 mm 3 mps 754 mmHg 89%
    05:00 +10°C° 0.2 mm 3 mps 754 mmHg 88%
    06:00 +10°C° 0.2 mm 3 mps 754 mmHg 87%
    07:00 +10°C° 0.2 mm 3 mps 754 mmHg 86%
    08:00 +10°C° 0.2 mm 3 mps 754 mmHg 83%
    09:00 +11°C° 0.2 mm 3 mps 754 mmHg 80%
    10:00 +12°C° 0.2 mm 3 mps 754 mmHg 77%
    11:00 +12°C° 0 mm 3 mps 753 mmHg 74%
    12:00 +13°C° 0 mm 3 mps 753 mmHg 70%
    13:00 +14°C° 0 mm 3 mps 753 mmHg 67%
    14:00 +14°C° 0.1 mm 3 mps 752 mmHg 69%
    15:00 +13°C° 0.1 mm 3 mps 752 mmHg 71%
    16:00 +13°C° 0.1 mm 3 mps 752 mmHg 73%
    17:00 +12°C° 0 mm 3 mps 752 mmHg 75%
    18:00 +12°C° 0 mm 3 mps 753 mmHg 77%
    19:00 +11°C° 0 mm 3 mps 753 mmHg 79%
    20:00 +11°C° 0 mm 3 mps 753 mmHg 80%
    21:00 +11°C° 0 mm 3 mps 753 mmHg 81%
    22:00 +11°C° 0 mm 3 mps 753 mmHg 82%
    23:00 +11°C° 0 mm 3 mps 753 mmHg 83%

    15 December, Saturday

    Time Temperature Precipitation Wind Pressure Humidity
    00:00 +11°C° 0 mm 3 mps 753 mmHg 83%
    01:00 +10°C° 0 mm 3 mps 753 mmHg 84%
    02:00 +10°C° 0 mm 3 mps 752 mmHg 84%
    03:00 +10°C° 0 mm 3 mps 752 mmHg 85%
    04:00 +10°C° 0 mm 3 mps 752 mmHg 85%
    05:00 +10°C° 0.1 mm 3 mps 752 mmHg 85%
    06:00 +10°C° 0.1 mm 3 mps 752 mmHg 86%
    07:00 +10°C° 0.1 mm 3 mps 753 mmHg 86%
    08:00 +11°C° 0.3 mm 4 mps 753 mmHg 83%
    09:00 +11°C° 0.3 mm 4 mps 753 mmHg 80%
    10:00 +11°C° 0.3 mm 4 mps 754 mmHg 77%
    11:00 +11°C° 0.7 mm 4 mps 754 mmHg 76%
    12:00 +11°C° 0.7 mm 4 mps 754 mmHg 74%
    13:00 +9°C° 0.7 mm 5 mps 754 mmHg 72%
    14:00 +9°C° 0.7 mm 5 mps 754 mmHg 73%
    15:00 +8°C° 0.7 mm 5 mps 755 mmHg 73%
    16:00 +8°C° 0.7 mm 5 mps 755 mmHg 74%
    17:00 +7°C° 0.4 mm 5 mps 756 mmHg 74%
    18:00 +7°C° 0.4 mm 5 mps 756 mmHg 75%
    19:00 +7°C° 0.4 mm 5 mps 757 mmHg 75%
    20:00 +7°C° 0.1 mm 5 mps 757 mmHg 75%
    21:00 +7°C° 0.1 mm 5 mps 758 mmHg 75%
    22:00 +6°C° 0.1 mm 5 mps 758 mmHg 75%
    23:00 +6°C° 0 mm 5 mps 758 mmHg 75%

    16 December, Sunday

    Time Temperature Precipitation Wind Pressure Humidity
    00:00 +6°C° 0 mm 5 mps 758 mmHg 75%
    01:00 +6°C° 0 mm 5 mps 758 mmHg 75%
    02:00 +6°C° 0 mm 5 mps 759 mmHg 76%
    03:00 +5°C° 0 mm 5 mps 759 mmHg 76%
    04:00 +5°C° 0 mm 5 mps 759 mmHg 76%
    05:00 +5°C° 0 mm 5 mps 760 mmHg 76%
    06:00 +5°C° 0 mm 5 mps 760 mmHg 77%
    07:00 +5°C° 0 mm 5 mps 761 mmHg 77%
    08:00 +6°C° 0 mm 5 mps 761 mmHg 74%
    09:00 +6°C° 0 mm 5 mps 762 mmHg 72%
    10:00 +7°C° 0 mm 5 mps 763 mmHg 69%
    11:00 +8°C° 0 mm 4 mps 763 mmHg 67%
    12:00 +10°C° 0 mm 4 mps 763 mmHg 65%
    13:00 +10°C° 0 mm 4 mps 763 mmHg 62%
    14:00 +10°C° 0 mm 4 mps 763 mmHg 64%
    15:00 +10°C° 0 mm 4 mps 764 mmHg 65%
    16:00 +9°C° 0 mm 3 mps 764 mmHg 66%
    17:00 +8°C° 0 mm 3 mps 764 mmHg 67%
    18:00 +8°C° 0 mm 3 mps 765 mmHg 68%
    19:00 +7°C° 0 mm 3 mps 765 mmHg 69%
    20:00 +5°C° 0 mm 3 mps 765 mmHg 68%
    21:00 +5°C° 0 mm 3 mps 766 mmHg 67%
    22:00 +5°C° 0 mm 3 mps 766 mmHg 66%
    23:00 +5°C° 0 mm 3 mps 766 mmHg 65%
    Show more